RH
10 10 9 9 10 10 10 10 10 10 10 10 10 10 10 10 10 9 9 9 8 8 7 7 6 6 6 7 7 7 8 8 8 8 9 10 10 11 12 13 14 16 17 17 18 18 19 19 19 19 19 20 20 20 21 21 22 22 22 22 22 22 22 22 22 21 21 21 20 20 19 18 18 18 17 17 17 16 16 17 18 18 19 20 20 21
7 7 7 7 7 7 7 7 7 7 7 6 7 7 7 7 6 6 6 6 6 6 6 5 5 5 5 5 5 6 6 6 6 6 6 7 7 8 9 10 10 11 12 13 14 15 15 16 16 16 17 17 17 17 18 18 18 19 19 19 19 20 20 19 19 19 19 19 18 18 18 18 18 18 18 17 17 17 17 17 18 19 19 20 20 20
4 4 4 4 4 4 4 4 4 4 4 4 4 4 4 5 4 4 4 4 5 5 5 4 4 4 4 4 4 4 5 5 5 5 5 5 5 6 6 7 7 8 9 10 10 11 12 12 13 13 13 14 14 15 15 15 16 16 17 17 17 17 18 18 18 18 17 17 17 17 17 17 17 17 17 17 16 16 16 17 18 18 19 19 19 19
4 4 4 4 4 4 4 4 4 4 4 4 4 4 4 4 4 4 4 4 4 4 4 4 4 4 4 4 4 4 4 4 4 4 4 4 4 4 5 5 5 6 6 7 7 8 8 9 9 10 10 11 11 12 12 12 13 13 14 14 15 15 15 15 15 16 16 15 15 15 15 15 15 15 15 15 15 15 15 15 16 17 17 17 17 17
7 6 6 6 6 6 5 5 5 5 5 5 5 5 6 6 6 6 6 6 6 6 6 6 6 6 6 6 6 6 5 5 5 5 5 5 5 4 4 4 4 4 5 5 5 5 6 6 7 7 7 8 8 9 9 10 10 11 11 11 12 12 13 13 13 13 13 13 13 13 13 13 13 14 14 13 13 13 13 13 14 14 15 15 15 14
12 12 11 11 10 10 9 9 9 9 9 8 8 8 9 9 9 9 9 9 9 9 9 9 9 9 9 9 8 8 8 8 7 7 7 7 6 6 5 5 5 5 4 4 4 4 4 5 5 5 5 6 6 6 7 7 8 8 9 9 9 10 10 10 10 11 11 11 11 11 11 11 11 12 12 11 11 11 11 11 11 12 12 12 12 12
19 18 18 17 16 15 15 14 14 14 13 13 12 11 11 12 13 14 14 14 14 13 13 13 13 13 13 12 12 12 12 11 11 11 10 10 9 9 8 7 7 6 6 5 5 5 4 4 4 4 4 4 5 5 5 5 6 6 6 7 7 7 8 8 8 9 9 9 9 9 9 9 10 10 10 10 9 9 9 9 10 10 10 10 10 10
27 26 25 24 23 21 20 20 19 19 19 18 17 16 15 15 16 17 18 19 19 19 18 18 17 17 17 17 17 17 16 16 15 15 14 14 13 12 12 11 10 9 8 8 7 6 6 5 5 5 4 4 4 4 4 4 5 5 5 5 5 6 6 6 6 7 7 7 7 7 7 8 8 8 8 8 8 8 7 8 8 8 8 8 8 8
34 33 32 31 30 29 27 26 25 25 24 24 22 21 19 18 18 19 21 23 24 24 24 23 22 21 21 21 21 21 20 20 20 19 19 18 18 17 16 15 14 13 12 11 10 10 9 8 7 7 6 6 5 5 5 5 4 4 4 4 4 5 5 5 5 5 5 5 5 6 6 6 6 6 6 6 6 6 6 6 6 6 6 6 6 6
39 38 37 37 36 35 34 33 31 31 30 29 28 26 25 24 23 22 23 26 27 29 29 28 27 26 25 25 25 25 24 24 24 23 23 23 22 21 21 20 19 18 17 16 15 14 12 11 10 10 9 8 7 7 6 6 5 5 5 5 4 4 4 4 4 4 4 4 4 4 4 5 5 5 5 5 5 5 5 5 5 5 5 5 5 5
40 40 40 39 39 39 39 38 37 36 35 35 34 32 31 30 28 28 27 28 30 32 33 32 31 30 29 28 28 28 28 27 27 26 26 26 26 26 25 24 23 23 21 20 19 18 17 16 15 14 13 12 11 10 9 8 8 7 7 6 6 5 5 4 4 4 4 3 3 3 4 4 4 4 4 4 4 4 4 4 4 4 4 4 4 4
37 38 38 39 39 40 40 40 40 39 39 39 38 37 36 35 34 33 32 32 33 34 36 36 36 35 33 33 32 31 31 30 30 30 30 30 29 29 29 28 27 27 26 25 24 23 22 21 19 18 17 16 15 14 13 12 11 10 9 9 8 7 6 6 5 5 4 4 3 3 3 3 3 3 3 3 3 3 3 3 3 4 4 4 4 4
33 34 35 35 36 37 38 39 39 39 40 40 39 39 39 38 37 36 35 35 35 37 39 40 40 39 37 36 35 35 34 34 33 33 33 33 33 33 33 32 31 30 29 29 28 27 26 25 24 23 22 21 19 18 17 16 15 14 13 12 11 10 9 8 7 7 6 5 4 4 3 3 3 3 3 3 3 3 3 3 3 3 3 3 3 3
28 29 30 31 32 33 34 35 36 36 37 38 38 39 39 39 39 38 37 37 37 39 41 42 43 43 42 40 39 38 38 37 36 35 35 35 36 36 36 35 35 34 33 32 31 31 30 29 28 27 26 25 24 23 22 20 19 18 17 16 15 14 13 12 10 9 8 7 6 5 4 4 3 3 3 3 3 2 2 3 3 3 3 3 3 3
22 23 24 25 26 28 29 30 31 32 33 35 35 36 37 38 38 38 38 37 38 39 41 42 44 44 44 43 42 41 41 40 39 39 38 38 38 38 39 39 38 37 36 35 35 34 33 33 32 31 30 29 28 27 26 25 24 22 21 20 19 18 17 15 14 13 12 10 9 8 7 6 5 4 4 3 3 3 3 3 3 3 3 3 3 3
17 18 18 20 21 22 24 25 26 27 28 30 31 32 33 34 35 35 36 36 37 37 39 40 42 43 44 44 43 43 43 43 42 41 41 40 40 40 41 41 41 40 39 38 38 37 36 36 35 35 34 33 32 31 30 29 28 26 25 24 23 22 21 19 18 17 16 15 13 12 10 9 7 6 5 5 4 4 3 3 3 3 3 3 3 3
13 13 14 15 16 17 19 20 21 22 23 25 26 27 28 29 31 32 32 33 34 35 35 37 39 41 42 43 43 43 43 43 43 43 43 42 42 42 42 43 43 42 41 40 40 40 39 39 38 38 37 36 36 35 34 33 32 31 29 28 27 26 25 24 23 21 20 19 17 16 14 13 11 10 8 7 6 6 5 4 4 4 3 3 3 3
9 10 10 11 12 13 14 15 16 17 18 20 21 22 24 25 26 27 28 29 30 31 32 33 35 36 38 40 41 42 41 42 43 43 43 43 43 43 42 43 43 43 42 41 41 41 41 41 41 40 40 40 39 38 37 36 35 35 33 32 31 30 29 28 27 26 24 23 22 20 19 17 16 14 12 11 10 9 8 7 6 5 5 4 4 3
7 7 8 8 9 10 10 11 12 13 14 15 16 18 19 20 22 23 24 26 26 27 28 29 31 32 34 35 37 38 38 39 40 41 41 41 42 42 42 42 42 42 42 42 42 42 42 42 42 42 42 42 42 41 41 40 39 38 37 36 35 34 33 32 30 29 28 27 26 25 23 22 20 19 17 15 14 12 11 10 9 8 7 6 6 5
5 5 5 6 6 7 8 8 9 10 10 11 12 13 14 16 17 18 20 21 23 24 25 26 27 28 29 31 33 34 34 35 36 37 38 38 39 40 40 40 41 41 41 41 41 41 42 42 43 43 43 43 43 43 43 43 42 42 41 40 39 37 36 35 34 33 32 31 30 28 27 26 25 23 22 20 18 17 15 14 12 11 10 9 8 7
4 4 4 4 4 5 5 6 7 7 8 8 9 10 11 12 13 14 16 17 18 20 21 22 23 25 26 27 28 30 30 31 32 33 34 35 36 37 37 38 39 39 40 40 40 40 41 41 42 42 43 43 44 44 44 44 44 44 43 42 41 41 40 39 38 36 35 34 33 32 31 29 28 27 26 24 23 21 19 18 17 15 14 13 11 10
3 3 3 3 3 4 4 4 5 5 6 6 7 7 8 9 10 11 12 13 14 16 17 18 20 21 23 24 25 26 27 27 28 29 30 31 32 33 35 35 35 36 37 38 38 38 39 39 40 41 41 42 43 44 44 45 45 45 44 44 43 43 42 41 40 39 39 37 36 35 34 33 32 30 29 28 26 25 23 22 20 19 18 16 15 14
3 3 3 3 3 3 3 3 4 4 4 4 5 6 6 7 8 8 9 10 11 12 14 15 16 18 19 20 21 22 23 24 25 26 27 27 28 30 31 31 32 33 34 35 35 35 36 36 37 38 39 40 41 42 43 43 44 44 44 44 44 43 43 43 42 41 41 40 39 38 37 36 35 34 33 31 30 28 27 26 24 23 21 20 18 17
4 4 3 3 3 3 3 3 3 3 3 3 4 4 5 5 6 7 7 8 9 10 11 12 13 14 15 17 18 19 20 21 22 23 23 24 25 27 27 28 28 29 30 31 32 32 33 33 34 35 35 36 38 39 40 41 42 42 43 43 43 43 43 43 42 42 42 42 41 40 40 39 38 36 35 34 33 32 30 29 27 26 25 23 22 20
4 4 4 4 3 3 3 3 3 3 3 3 3 3 4 4 5 5 6 6 7 8 8 9 10 11 12 13 15 16 17 18 19 19 20 21 23 24 25 25 26 26 27 28 28 29 29 30 30 31 32 33 34 35 36 37 38 39 40 40 41 41 41 41 42 42 42 42 42 42 41 41 40 39 38 37 36 35 33 32 30 29 27 26 25 23
4 4 4 4 4 4 4 3 3 3 3 3 3 3 3 4 4 5 5 5 6 6 7 7 8 9 10 11 12 13 14 15 16 17 18 18 20 21 22 22 23 24 24 25 26 26 26 27 27 28 28 29 30 31 32 33 34 35 36 37 38 38 39 39 40 40 41 41 42 42 42 42 41 41 40 39 38 37 36 35 33 32 30 29 27 26
4 4 4 4 4 4 4 4 4 4 3 3 3 3 3 4 4 4 5 5 5 6 6 6 7 7 8 8 9 10 11 12 13 14 15 16 17 18 19 20 20 21 22 23 23 24 24 25 25 25 26 26 26 27 28 29 30 31 32 33 34 35 35 36 36 37 38 39 40 41 41 42 42 41 41 41 40 39 38 37 36 34 33 32 30 29
5 5 5 5 5 5 4 4 4 4 4 4 4 4 4 4 4 4 5 5 5 6 6 6 6 6 7 7 8 8 9 10 10 11 12 13 14 15 16 17 18 18 19 20 21 21 22 22 23 23 23 24 24 24 25 26 26 27 28 29 30 31 31 32 33 34 35 36 37 39 40 41 41 41 41 41 41 40 40 39 38 36 35 34 33 31
6 6 6 6 6 6 6 6 5 5 5 5 5 5 5 5 5 5 5 5 6 7 7 7 6 7 7 7 7 7 8 8 9 9 10 10 11 12 14 14 15 16 17 18 18 19 19 20 20 21 21 21 22 22 22 23 23 24 25 26 26 27 28 29 30 31 32 33 34 36 37 38 39 40 41 41 41 41 41 40 39 38 37 36 35 34
7 7 8 8 7 7 7 7 7 7 7 7 7 6 6 6 6 6 5 6 7 8 8 7 7 8 7 7 7 7 7 7 7 8 8 8 9 10 11 12 12 13 14 15 16 16 17 18 18 19 19 19 20 20 21 21 21 22 22 23 23 24 25 26 26 27 28 29 31 32 34 35 37 38 39 40 40 41 41 41 40 39 39 38 37 35
10 10 10 10 10 10 10 10 10 10 9 9 9 9 9 8 8 8 7 7 8 8 8 8 9 9 9 8 7 7 7 7 7 7 7 7 8 9 9 10 10 11 12 12 13 14 15 16 16 17 17 18 18 18 19 19 19 20 20 20 21 22 22 23 24 24 25 26 27 29 31 32 34 35 37 38 39 39 40 40 40 40 39 39 38 37
14 15 15 15 15 15 15 14 13 13 12 12 12 11 11 11 10 10 10 9 9 9 9 9 9 10 10 10 9 8 7 7 7 7 7 7 7 7 8 8 9 9 10 10 11 12 13 13 14 15 15 16 16 17 17 17 18 18 18 19 19 19 20 21 21 22 23 24 25 26 27 29 31 32 34 35 36 38 39 39 40 40 40 40 39 38
20 22 22 22 22 21 20 19 18 17 16 16 15 15 14 14 13 13 12 12 11 10 10 10 10 10 10 10 10 9 8 8 8 8 7 7 7 7 7 7 7 8 8 9 9 10 11 11 12 13 13 14 14 15 15 16 16 16 17 17 17 18 18 19 19 20 20 21 22 23 24 26 28 29 31 33 34 35 37 38 38 39 39 40 39 39
27 28 30 30 29 28 27 25 24 22 21 20 19 18 18 18 17 16 15 14 13 13 12 11 11 11 11 11 11 10 9 9 9 9 9 9 8 7 7 7 7 7 7 7 8 8 9 10 10 11 11 12 12 13 13 14 14 15 15 15 16 16 17 17 18 18 19 19 20 21 22 23 25 26 28 30 31 33 34 36 37 38 38 39 39 39
37 37 38 39 39 38 36 34 31 29 27 26 24 23 22 21 20 19 18 17 16 15 14 13 12 12 12 12 11 10 10 9 10 10 11 10 10 9 8 7 7 7 6 7 7 7 8 8 9 9 10 10 11 11 12 12 13 13 13 14 14 15 15 16 16 17 17 18 18 19 20 21 23 24 26 27 29 30 32 34 35 36 37 38 38 39
50 50 51 51 51 48 45 42 39 36 34 31 29 27 25 24 22 21 20 19 18 17 16 15 14 13 13 12 12 11 10 10 11 12 13 12 11 10 9 9 8 7 7 6 6 6 6 7 7 8 8 8 9 10 10 11 11 11 12 12 13 13 14 14 15 15 16 16 17 18 19 20 21 22 24 25 27 29 30 32 33 35 36 36 37 38
59 60 62 61 58 54 50 46 43 40 37 34 32 30 28 27 26 24 22 20 19 18 17 16 16 15 14 13 12 11 11 11 12 13 14 14 13 12 11 10 9 9 8 7 7 6 6 6 6 6 7 7 8 8 9 9 10 10 10 11 12 12 13 13 14 14 15 15 16 17 18 19 20 21 22 24 26 27 29 31 32 33 34 35 36 37
63 64 64 62 59 55 51 47 43 40 37 35 33 31 31 29 28 26 24 22 21 19 18 18 17 16 15 14 13 12 12 11 12 13 14 15 15 14 13 12 11 11 10 9 8 7 7 6 5 5 5 6 6 7 7 8 8 9 9 10 10 11 12 12 13 13 14 15 15 16 17 18 19 20 22 23 25 26 28 30 31 32 33 34 35 36
64 64 62 59 56 52 48 45 42 39 35 33 31 30 30 29 28 27 26 25 23 21 19 18 18 17 16 15 14 13 12 12 12 12 13 15 15 16 15 14 14 13 12 11 10 9 8 7 7 6 5 5 5 5 6 7 7 8 8 9 10 10 11 11 12 13 14 14 15 16 17 18 19 20 21 22 24 26 27 29 30 30 32 33 35 35
64 62 60 57 53 48 45 42 39 36 34 31 30 28 27 27 26 26 26 26 24 23 21 19 18 17 16 16 15 14 13 13 13 13 13 14 15 16 16 16 15 15 15 14 13 12 10 10 9 7 6 5 5 5 5 5 6 7 7 8 9 9 10 11 12 13 13 14 15 16 17 18 19 20 21 22 24 25 26 28 29 30 31 33 35 37
63 62 60 56 51 47 43 41 39 37 34 32 30 28 26 25 24 24 24 23 23 22 21 20 18 18 17 16 16 15 14 14 13 13 13 14 15 15 16 16 16 16 16 16 15 14 13 12 11 9 8 6 6 5 5 5 5 5 6 7 8 8 9 10 11 12 13 14 15 16 17 18 19 20 22 23 24 25 26 27 29 30 31 32 34 37
63 62 60 56 52 48 45 43 41 39 37 35 33 31 29 28 26 24 23 21 20 19 18 18 17 17 16 16 15 15 15 14 14 14 14 14 15 15 16 16 16 16 16 16 16 16 15 14 13 12 10 9 8 7 6 5 5 5 5 6 6 7 8 9 10 11 13 14 16 17 18 19 20 22 23 24 25 26 28 28 29 30 31 33 34 35
64 63 61 58 55 52 49 48 46 44 43 41 39 38 36 35 33 30 28 26 24 22 19 18 17 16 15 15 14 14 14 14 14 14 14 14 14 15 15 16 16 16 17 17 17 17 16 16 15 14 13 11 10 9 8 6 6 5 5 5 6 7 9 9 9 11 13 14 15 17 18 20 22 23 25 27 30 33 32 31 30 31 32 33 34 35
65 64 64 62 60 58 57 55 54 53 51 50 48 46 44 42 40 39 37 35 33 30 27 25 22 20 18 16 15 14 13 13 13 13 13 13 14 14 14 15 16 16 17 17 17 17 17 17 17 16 15 14 13 11 10 9 8 7 6 6 7 8 9 9 9 10 11 13 15 17 19 20 23 25 27 31 34 34 35 33 32 32 33 34 35 36
68 68 67 66 66 65 65 64 62 60 59 58 56 53 50 48 46 44 43 41 39 38 36 33 31 28 25 23 20 18 16 14 13 12 12 12 13 13 15 15 15 16 17 17 17 18 18 18 18 17 16 16 15 14 12 11 10 9 8 7 7 7 7 8 9 10 10 11 13 16 19 21 23 26 28 32 35 36 37 38 38 37 35 35 36 37
69 69 69 69 68 68 67 66 65 63 61 59 57 54 51 48 46 45 44 42 41 40 38 37 35 34 32 30 28 25 22 19 17 15 13 12 12 13 14 14 14 15 16 16 17 18 18 18 18 18 18 17 16 15 14 14 13 12 11 9 8 8 8 8 9 9 9 10 11 14 17 20 24 27 30 36 39 40 39 40 40 41 40 39 39 39
69 69 70 69 69 68 68 66 64 61 59 55 52 48 45 43 42 41 40 39 38 37 36 36 35 34 34 33 31 30 27 25 22 19 17 15 14 13 12 12 13 14 14 15 17 18 18 18 18 18 18 18 18 17 16 15 15 14 13 12 11 10 9 8 8 7 7 8 9 11 14 19 23 26 29 35 38 39 42 42 42 42 42 42 42 42
70 70 70 69 69 68 67 65 62 59 54 49 45 42 40 38 37 36 36 35 34 34 33 33 32 32 32 31 31 30 29 28 26 24 22 19 17 15 14 13 13 13 14 14 15 17 18 18 18 18 18 18 18 18 17 17 17 16 15 15 14 12 10 9 8 7 7 7 7 8 11 16 20 24 29 32 36 40 46 46 45 43 43 43 44 44
70 70 70 69 69 68 67 63 60 55 48 43 40 38 36 36 36 35 35 34 33 32 31 31 30 29 29 28 28 28 27 27 26 26 24 22 20 18 16 15 15 14 14 14 14 15 17 17 18 18 18 18 18 18 18 18 18 17 17 17 16 15 13 11 10 8 7 7 7 7 8 12 16 20 26 31 37 44 52 52 50 47 45 44 44 45
70 70 70 69 68 67 65 61 56 50 43 40 38 37 36 36 35 35 33 32 31 30 29 29 28 28 28 27 27 26 25 25 25 24 24 23 21 20 22 25 24 21 17 15 14 14 15 16 17 17 17 17 18 18 19 19 19 19 19 18 18 18 17 15 12 10 9 8 7 7 7 9 12 17 22 28 36 44 52 54 54 52 49 46 45 45
70 70 70 69 68 66 63 58 51 45 40 39 38 37 37 35 34 33 32 30 28 27 26 26 27 27 28 28 28 27 25 25 24 23 23 23 25 29 38 42 42 37 29 21 17 14 15 15 15 16 16 17 18 18 19 20 20 20 20 20 20 20 19 18 16 13 11 9 8 7 7 8 10 14 18 24 30 37 43 48 51 53 51 48 47 46
Wind_Speed
72 71 71 71 70 70 70 69 69 68 68 67 66 66 66 65 64 63 62 62 61 61 60 58 58 57 57 56 56 56 56 56 55 55 55 55 54 54 54 54 54 54 54 54 54 54 54 54 54 54 54 54 53 53 53 53 53 52 52 52 52 52 51 51 51 50 49 48 47 46 45 43 42 41 40 40 39 39 39 38 38 38 38 37 37 37
73 72 72 71 71 71 70 69 69 68 68 67 66 65 65 64 63 62 61 60 60 59 58 57 56 55 55 54 54 54 54 54 54 54 53 53 53 53 54 54 54 54 54 54 55 55 55 55 55 55 55 55 55 55 55 54 54 54 54 53 53 53 53 52 52 51 50 50 49 48 46 45 44 42 41 41 40 39 39 38 38 38 38 38 38 37
72 72 71 71 70 70 69 69 68 67 67 66 65 64 63 63 62 61 60 59 58 58 57 56 55 54 53 53 53 53 53 53 53 52 52 52 52 52 52 52 52 53 53 53 54 54 54 55 55 55 55 55 55 55 55 55 55 55 55 54 54 54 53 53 52 52 51 50 50 49 47 46 45 43 42 41 40 40 39 39 38 38 38 38 38 37
70 70 70 70 69 69 68 68 67 67 66 65 64 63 63 62 62 61 60 59 58 58 57 56 56 55 54 53 52 52 52 52 52 52 51 51 51 51 50 51 51 51 51 52 52 52 53 53 53 54 54 54 54 55 55 55 55 54 54 54 54 54 53 53 53 52 51 50 49 49 47 46 45 43 42 41 41 40 39 39 38 38 38 38 38 37
71 71 71 70 70 69 69 68 68 67 67 66 65 64 63 63 63 62 62 61 60 59 58 58 57 56 55 54 54 53 53 53 53 52 52 51 51 50 50 50 50 50 50 50 50 50 51 51 51 52 52 52 52 52 52 53 53 53 53 53 53 53 52 52 52 51 50 49 49 48 46 45 44 43 42 41 40 39 39 38 38 38 38 37 37 37
73 73 73 72 72 71 71 70 70 69 69 68 67 66 65 65 64 64 64 63 62 62 61 60 59 58 57 56 56 55 55 54 54 54 53 52 52 51 51 50 50 50 50 50 49 49 49 49 50 50 50 50 50 50 50 50 50 50 50 50 50 50 50 50 49 49 48 48 47 46 45 44 42 41 41 40 39 39 38 37 37 37 37 37 36 36
76 76 75 75 75 74 73 73 72 72 72 71 70 69 68 67 66 66 66 65 65 64 64 63 62 61 60 59 58 58 57 57 56 56 55 54 54 53 53 52 52 51 51 50 50 50 49 49 49 49 48 48 48 48 47 47 47 47 47 47 47 47 47 47 47 46 46 45 44 43 43 42 41 40 40 39 38 38 37 37 36 36 36 36 35 35
79 79 78 78 77 77 76 75 75 74 74 74 73 72 71 70 69 68 68 67 67 67 66 65 64 63 62 62 61 60 60 59 59 58 57 57 56 55 55 54 54 53 53 52 52 51 51 50 49 49 48 48 47 47 46 46 46 45 45 45 45 45 45 44 44 44 43 43 42 41 41 40 39 39 39 38 38 37 36 36 36 35 35 35 34 34
82 81 81 80 80 79 79 78 77 77 76 76 76 75 74 73 72 71 70 70 69 69 68 68 67 66 65 64 64 63 62 62 61 60 60 59 58 58 57 56 56 55 55 54 54 53 52 52 51 50 50 49 48 48 47 46 46 45 45 44 44 44 43 43 43 42 42 41 41 40 39 39 39 38 38 37 37 36 36 35 35 35 35 34 34 33
85 84 83 83 82 82 81 80 80 79 79 78 78 77 76 76 75 74 73 72 72 71 71 70 69 69 68 67 66 65 65 64 63 62 62 61 60 60 59 58 58 57 57 56 56 55 54 54 53 52 51 51 50 49 48 48 47 46 46 45 45 44 44 43 42 42 41 41 40 39 39 38 38 38 37 37 37 36 36 35 35 35 34 34 33 33
88 87 86 85 85 84 84 83 82 82 81 81 80 80 79 78 77 76 76 75 74 73 73 72 72 71 70 69 69 68 67 66 66 65 64 63 62 61 61 60 60 59 59 58 57 57 56 55 55 54 53 53 52 51 50 50 49 48 48 47 46 45 45 44 43 43 42 41 40 40 39 39 38 38 38 37 37 36 36 35 35 35 34 34 34 33
90 90 89 88 88 87 86 86 85 85 84 83 83 82 81 80 80 79 78 78 77 75 75 74 74 73 72 71 71 70 70 69 68 67 65 65 64 63 63 62 61 61 60 59 59 58 58 57 56 56 55 54 54 53 52 52 51 50 50 49 48 47 47 46 45 44 43 42 42 41 40 40 39 39 38 38 37 37 36 36 35 35 35 34 34 34
93 93 92 91 91 90 89 88 88 87 87 86 85 85 84 83 82 82 81 80 79 78 77 76 76 75 74 74 73 72 72 71 70 69 67 67 66 65 64 64 63 62 62 61 60 60 59 58 58 57 57 56 56 55 54 54 53 52 52 51 50 50 49 48 47 46 45 44 43 42 42 41 40 40 39 39 38 38 37 37 36 36 35 35 35 34
96 95 95 94 93 93 92 91 90 90 89 89 88 87 87 86 85 84 84 83 81 80 79 78 78 77 76 76 75 74 74 73 72 71 70 69 68 67 66 65 65 64 63 62 62 61 60 60 59 59 58 58 57 56 56 55 55 54 54 53 52 52 51 50 49 48 47 46 45 44 44 43 42 42 41 40 40 39 39 38 37 37 37 36 36 35
99 98 97 97 96 95 94 93 93 92 92 91 90 90 89 89 88 87 86 85 84 83 82 81 80 79 78 78 77 76 76 75 74 73 72 71 70 69 68 67 67 66 65 64 63 62 62 61 61 60 59 59 58 58 57 57 56 56 55 55 54 53 53 52 51 50 49 48 48 47 46 45 44 43 43 42 41 41 40 40 39 39 38 37 37 36
102 101 100 99 98 98 97 96 95 94 94 93 93 92 91 91 90 90 89 88 87 86 84 83 82 81 80 80 79 78 78 77 76 75 74 73 72 71 70 69 69 68 67 66 65 64 63 63 62 61 61 60 60 59 59 58 58 57 57 56 55 55 54 53 53 52 51 50 49 49 48 47 46 45 45 44 43 43 42 41 41 40 40 39 38 38
104 103 103 102 101 100 99 98 97 97 96 96 95 94 94 93 92 92 91 90 89 88 87 86 85 83 82 81 81 80 80 79 78 77 76 75 74 73 73 72 71 70 69 68 67 66 65 65 64 63 62 62 61 60 60 59 59 58 58 57 57 56 55 55 54 53 53 52 51 50 50 49 48 47 47 46 45 45 44 43 43 42 42 41 40 40
107 106 105 104 103 102 102 100 99 99 98 97 97 96 96 95 95 94 93 92 92 91 90 89 87 86 84 83 82 82 81 80 80 79 78 77 76 76 75 74 73 72 71 70 69 68 67 66 66 65 64 63 62 62 61 61 60 59 59 58 58 57 56 56 55 54 54 53 52 52 51 50 50 49 48 48 47 46 46 45 44 44 43 43 42 41
109 108 107 106 106 105 104 103 102 101 100 99 99 98 98 97 97 96 95 95 94 93 92 91 90 88 87 85 84 84 83 82 81 81 80 79 78 77 77 76 75 74 73 72 71 70 69 68 67 66 65 65 64 63 62 62 61 60 60 59 58 58 57 56 56 55 55 54 54 53 52 52 51 50 50 49 48 48 47 47 46 46 45 44 44 43
110 110 109 108 107 107 106 105 104 103 102 101 101 100 99 99 98 98 97 96 96 95 94 93 92 91 89 87 86 86 85 84 83 82 82 81 80 79 79 78 77 76 75 74 73 72 71 70 69 68 67 66 65 64 63 63 62 61 61 60 59 59 58 57 57 56 55 55 54 54 53 53 52 51 51 50 50 49 48 48 47 47 47 46 45 45
110 110 110 109 108 107 107 106 106 104 103 103 102 102 101 101 100 99 99 98 97 97 96 95 94 93 92 90 89 88 87 86 85 84 84 83 82 81 80 79 78 77 76 75 74 74 72 72 71 69 68 67 66 65 65 64 63 63 62 61 61 60 59 58 58 57 56 56 55 55 54 53 53 52 52 51 50 50 49 49 48 48 48 47 47 46
109 109 110 110 108 107 107 107 107 106 105 104 103 102 103 102 101 101 101 100 99 98 98 97 96 95 94 92 91 90 89 87 86 86 85 84 83 82 81 80 79 78 77 76 76 75 74 73 72 71 70 69 68 67 66 65 64 64 63 62 62 61 60 59 59 58 57 57 56 55 55 54 54 53 52 52 51 50 50 50 49 49 48 48 47 47
106 107 108 108 107 107 107 107 107 106 106 104 104 103 104 103 102 102 102 101 101 100 100 99 98 97 96 94 93 92 91 89 88 87 86 85 84 84 83 81 80 79 78 77 76 76 75 74 73 72 71 70 69 68 67 66 65 65 64 63 63 62 61 61 60 59 58 58 57 56 56 55 54 54 53 52 52 51 50 50 50 49 49 48 48 48
102 103 104 105 105 105 106 106 106 106 105 105 104 104 104 104 103 103 103 102 102 101 101 100 99 98 97 96 95 94 93 92 90 89 88 87 86 85 84 82 81 80 80 79 78 77 76 75 74 73 72 71 70 69 68 67 66 66 65 64 64 63 63 62 61 60 59 59 58 57 56 56 55 54 54 53 52 51 51 50 50 50 49 49 49 48
98 99 100 101 102 102 103 103 104 104 104 104 104 104 104 103 103 103 103 103 102 102 102 101 100 99 99 98 96 95 94 94 92 91 90 89 88 87 85 84 83 82 81 80 79 78 77 76 75 74 73 72 71 70 69 68 67 67 66 65 65 64 64 63 62 61 60 60 59 58 57 57 56 55 54 54 53 52 52 51 50 50 49 49 49 49
94 95 96 96 97 98 99 100 101 101 102 102 102 102 102 102 102 102 101 101 101 102 101 101 101 101 100 99 97 96 96 95 94 92 92 91 90 89 87 86 85 84 83 82 81 80 78 77 76 75 74 73 72 71 70 69 68 68 67 66 66 65 65 64 63 62 62 61 60 59 58 57 57 56 55 54 54 53 52 52 51 50 50 50 49 49
90 91 91 92 93 94 95 96 97 98 99 99 100 100 101 101 100 100 99 100 101 100 100 100 100 101 101 99 98 97 97 96 95 94 94 92 91 90 89 88 87 86 85 84 83 81 80 78 77 76 75 74 74 73 71 70 70 69 68 67 67 66 65 65 64 63 62 62 61 60 59 58 57 57 56 55 54 53 53 52 52 51 50 50 50 49
85 86 86 87 88 89 90 92 93 94 95 96 97 98 98 98 97 97 98 99 99 98 97 98 99 100 99 98 98 98 98 96 96 96 95 94 92 92 92 90 88 87 87 86 84 83 81 80 79 78 77 76 75 74 73 72 71 70 69 68 68 67 66 66 65 64 63 62 61 61 60 59 58 57 57 56 55 54 53 53 52 52 51 51 50 50
80 81 82 83 84 85 86 87 88 90 91 92 93 94 95 95 94 95 97 98 96 94 94 96 98 98 97 98 98 98 97 96 96 97 96 94 93 93 93 91 90 89 88 87 86 84 82 81 80 79 78 78 77 76 75 74 73 72 70 70 69 68 67 67 66 65 64 63 62 61 60 60 59 58 57 56 56 55 54 53 53 52 52 51 51 50
75 76 77 78 79 80 81 82 83 85 86 87 88 89 90 91 91 92 94 94 93 91 92 94 95 95 95 96 96 96 95 96 97 97 95 93 93 94 94 92 91 90 90 89 87 85 84 83 82 81 80 80 79 78 77 76 75 73 72 71 70 69 69 68 67 66 65 64 63 62 61 60 60 59 58 57 56 55 55 54 54 53 52 52 51 50
69 70 71 72 73 74 75 76 77 79 80 81 83 84 85 86 87 88 89 90 89 89 90 91 92 92 92 93 93 94 95 96 96 96 94 92 93 95 95 92 91 92 91 90 88 87 86 85 84 83 82 81 81 80 79 78 77 75 74 73 72 71 70 69 68 67 66 65 64 63 62 61 60 60 59 58 57 56 55 55 54 54 53 52 51 51
63 63 65 66 67 68 69 70 71 73 74 75 76 78 79 80 82 83 84 85 86 87 88 89 89 89 90 90 91 92 94 94 94 93 91 91 92 94 94 92 92 92 92 91 89 88 88 87 86 84 83 83 82 82 81 80 78 77 76 75 73 73 72 71 70 69 68 67 66 64 63 62 61 60 60 59 58 57 56 55 55 54 53 52 52 51
56 57 58 59 60 62 63 64 65 66 67 69 70 71 73 74 76 77 79 80 82 83 84 85 86 87 87 88 89 91 92 91 90 89 88 88 90 92 93 92 91 92 92 91 90 89 89 88 87 85 84 83 83 83 82 81 80 79 78 76 75 74 73 72 71 70 69 68 67 66 65 64 62 61 60 59 58 58 57 56 55 55 54 53 52 51
51 51 52 53 54 55 56 58 59 60 61 62 63 65 66 68 69 71 73 75 77 78 80 81 82 83 84 85 86 88 88 88 87 86 85 86 87 89 91 90 90 90 91 91 90 90 89 88 87 86 85 84 84 84 83 82 81 81 79 78 77 76 75 74 73 72 71 69 68 67 66 65 64 63 62 61 60 59 58 57 56 55 54 53 53 52
45 46 46 47 47 48 49 50 51 53 54 55 57 59 60 62 64 66 67 69 71 73 75 76 78 79 80 82 83 84 84 84 84 83 82 83 85 87 88 88 88 89 89 89 90 89 89 88 88 87 85 85 84 84 84 83 83 82 81 79 78 77 76 75 74 73 72 71 70 69 68 66 65 64 63 62 61 60 59 58 57 56 55 54 53 53
40 40 40 40 41 42 43 44 45 46 48 50 51 53 55 57 59 61 63 65 66 68 70 72 73 75 77 78 79 80 81 81 81 80 80 82 84 85 86 86 87 87 87 87 88 88 88 88 87 87 86 85 85 85 84 84 83 82 81 81 79 78 77 76 75 74 73 72 71 70 69 68 66 65 64 63 62 61 60 59 58 57 56 55 54 53
35 35 34 35 35 36 38 39 40 41 43 45 46 48 50 53 55 57 59 61 62 64 65 67 69 70 72 74 75 77 78 78 77 77 78 80 82 83 83 84 84 84 84 84 86 87 87 86 86 86 85 85 85 84 84 84 83 83 82 81 80 79 78 77 76 75 74 73 72 71 70 69 68 67 65 64 63 62 61 60 59 58 57 56 55 54
32 31 31 31 32 33 34 35 36 37 39 41 42 45 47 49 52 54 55 57 58 60 62 63 65 67 68 70 71 72 73 74 74 75 76 78 79 79 80 81 82 82 82 82 84 84 84 84 84 85 85 85 84 84 83 83 82 82 83 82 81 80 79 78 77 76 75 74 73 72 71 70 69 68 66 65 64 63 62 61 60 59 58 57 56 55
29 28 28 28 29 30 31 32 33 34 35 37 39 41 43 45 47 49 51 53 54 56 58 60 61 63 65 66 67 68 69 70 71 73 74 75 76 76 77 78 79 79 80 80 81 82 82 82 83 84 84 84 83 83 82 82 82 82 83 82 81 80 80 79 78 76 75 75 74 73 72 71 70 69 68 67 65 64 63 63 61 60 59 58 56 55
26 26 26 26 26 27 28 29 30 31 32 33 35 37 38 40 42 43 45 48 50 52 54 56 58 59 61 62 63 64 65 67 68 69 71 72 73 74 75 76 77 77 78 78 79 79 80 81 82 83 83 83 82 82 81 81 81 81 82 81 81 80 80 79 78 77 76 75 74 73 73 72 71 70 69 68 67 66 65 64 62 61 60 58 57 56
25 24 24 24 25 25 26 27 27 28 29 30 31 32 33 34 36 37 39 42 44 46 49 51 53 55 56 58 59 60 62 63 64 66 67 69 70 72 72 73 74 75 76 76 77 77 78 79 80 81 81 81 81 81 80 80 80 80 80 80 80 81 80 79 78 77 77 76 75 74 73 72 71 70 70 69 68 66 66 64 63 62 60 59 58 56
24 23 23 23 23 24 24 25 25 25 26 26 27 27 28 29 30 31 33 35 37 39 42 44 46 48 50 52 54 56 57 59 61 62 64 66 67 69 70 71 72 73 74 74 75 76 77 77 78 78 79 79 79 79 79 79 79 78 78 79 80 80 80 79 78 78 77 76 75 75 74 73 72 71 70 69 68 67 66 65 64 63 61 60 58 57
23 23 22 22 23 23 23 23 23 23 23 24 24 25 25 26 26 27 28 29 31 32 34 37 39 41 43 46 48 50 52 55 57 59 60 62 64 66 67 68 69 70 71 72 73 74 75 75 75 76 77 78 78 78 78 78 77 76 76 77 78 77 77 78 78 78 76 76 75 75 74 73 72 71 70 69 68 67 66 65 64 63 62 60 59 58
23 22 22 22 22 22 22 22 22 22 22 22 23 23 24 24 25 25 26 26 27 28 30 31 33 35 37 39 41 44 46 49 51 53 56 58 60 62 64 65 67 68 69 69 71 72 73 73 74 75 76 76 76 76 77 76 75 74 74 75 75 75 75 77 77 76 76 75 75 74 73 73 72 71 70 69 68 68 67 66 65 64 62 61 60 58
22 22 22 22 22 22 21 21 21 21 22 22 22 23 23 24 24 25 25 25 26 27 28 29 30 31 33 34 36 37 39 42 44 47 50 53 56 58 61 62 63 64 66 67 68 69 70 70 72 73 74 74 74 74 75 74 74 73 73 73 73 73 74 75 75 75 75 75 74 74 73 72 71 71 70 69 69 68 67 66 65 64 63 61 60 59
21 22 22 22 22 22 21 21 21 21 21 22 22 22 23 23 24 24 25 25 26 26 27 28 29 30 31 31 32 33 34 36 39 41 44 47 50 53 56 58 60 61 63 64 66 67 68 69 70 70 71 71 72 73 73 73 72 71 71 71 71 71 72 72 73 73 74 74 73 73 72 71 71 70 70 69 69 68 67 66 65 64 63 61 60 59
21 21 22 22 22 22 21 21 21 21 21 21 21 22 22 23 23 24 24 25 25 26 27 28 28 29 30 30 31 31 32 34 35 37 39 42 44 47 50 52 55 57 59 61 62 64 65 66 67 68 68 68 69 70 71 71 70 70 70 69 69 69 69 70 71 72 72 72 72 71 71 70 70 69 70 69 68 67 67 66 65 64 63 62 61 60
19 20 21 21 21 21 21 20 20 20 20 20 20 21 21 22 23 23 24 24 25 26 26 27 28 29 29 30 30 31 32 33 34 35 36 38 40 42 44 47 50 52 55 57 59 61 62 63 64 65 66 66 67 67 68 68 68 68 69 68 67 66 67 68 69 70 70 70 70 70 70 69 69 69 69 68 68 67 66 66 65 64 63 62 61 60
18 19 20 20 20 20 20 19 19 19 19 19 20 20 21 22 23 23 24 24 25 25 26 26 27 27 28 28 29 30 31 32 33 34 35 36 37 39 40 43 45 48 50 53 55 57 59 60 61 62 63 64 65 65 65 65 66 66 66 66 65 64 65 66 67 67 68 68 69 69 68 68 68 68 68 67 67 66 66 65 65 64 63 62 61 60
16 17 18 19 19 18 18 18 18 18 18 19 20 20 21 22 23 23 23 24 24 24 25 25 25 25 26 26 27 28 29 30 31 32 33 34 35 36 38 40 42 44 47 49 51 53 55 56 58 59 60 61 62 62 62 63 63 63 63 63 63 63 63 63 64 65 65 66 66 67 67 67 67 67 67 67 66 66 66 65 64 64 63 62 61 60
15 15 16 17 17 16 16 16 17 18 18 19 20 20 21 21 21 22 22 22 22 22 23 23 23 23 23 24 25 26 27 28 29 30 32 33 34 35 36 38 41 43 45 46 47 49 51 53 54 55 56 57 58 59 60 60 60 61 61 61 61 61 60 61 61 62 63 63 64 65 65 65 66 66 66 66 66 66 65 64 64 63 62 61 60 59
Wind_Direction
274 274 274 274 273 273 273 273 273 273 273 273 272 272 272 272 271 271 270 270 270 270 270 270 270 270 270 270 269 269 269 269 269 268 268 267 266 266 265 265 264 264 264 263 263 264 264 264 264 265 265 266 266 267 267 267 268 268 269 270 271 272 272 273 274 275 276 277 277 277 277 277 276 276 275 274 273 272 272 271 271 271 271 272 272 272
274 274 274 274 274 274 274 273 273 273 273 273 272 272 271 271 271 270 270 270 269 269 269 269 269 268 268 268 268 268 268 268 268 268 267 267 266 266 265 265 264 264 264 263 263 263 263 263 264 264 264 265 265 265 266 266 267 268 268 269 270 270 271 272 273 274 274 275 276 276 276 276 276 275 274 273 273 272 271 271 271 271 271 271 271 272
274 274 274 274 274 273 273 273 273 273 272 272 272 271 271 271 271 270 270 269 269 269 269 268 268 268 267 267 267 267 267 267 267 267 267 266 266 266 266 265 265 264 264 264 263 263 263 263 263 263 263 264 264 264 265 265 266 266 267 268 268 269 270 271 271 272 273 273 274 274 275 275 275 274 273 273 272 271 271 270 270 270 270 271 271 271
274 274 274 274 273 273 273 273 273 272 272 272 271 271 271 270 270 270 270 269 269 268 268 268 268 267 267 267 266 266 266 266 266 266 266 266 266 266 266 265 265 265 264 264 264 263 263 263 263 263 263 263 263 264 264 264 265 265 266 267 267 268 269 269 270 270 271 272 272 272 273 273 273 273 272 272 271 271 270 270 270 270 270 270 270 270
274 274 274 273 273 273 273 273 272 272 272 271 271 271 270 270 270 270 270 269 269 268 268 267 267 267 267 267 266 266 266 265 265 265 265 265 265 265 265 265 265 265 264 264 264 264 263 263 263 263 263 263 263 263 263 264 264 264 265 265 266 267 267 268 268 269 269 270 270 271 271 271 271 271 271 270 270 270 270 269 269 269 269 269 269 270
274 274 273 273 273 273 272 272 272 272 272 271 271 270 270 270 270 270 270 269 269 268 268 268 267 267 267 267 266 266 265 265 265 265 265 265 265 265 264 264 264 264 264 264 263 263 263 263 263 263 263 263 263 263 263 263 263 264 264 265 265 265 266 266 267 267 268 268 269 269 269 269 269 269 269 269 269 269 268 268 268 268 268 268 268 268
274 274 273 273 273 272 272 272 271 271 271 271 270 270 269 269 269 269 269 269 269 268 268 268 267 267 267 266 266 265 265 264 264 264 264 264 264 264 264 263 263 263 263 263 263 263 263 262 262 262 262 262 263 263 263 263 263 263 263 264 264 264 265 265 266 266 266 267 267 267 267 267 267 267 267 267 267 267 267 267 267 267 267 267 267 267
274 274 273 273 272 272 272 271 271 271 271 270 270 270 269 269 268 268 268 268 268 268 268 267 267 266 266 266 265 265 265 264 264 264 264 264 263 263 263 263 262 262 262 262 262 262 262 262 262 262 262 262 262 262 262 262 262 263 263 263 263 264 264 264 265 265 265 265 266 266 266 266 266 265 265 265 265 265 266 266 266 266 266 266 266 266
275 274 273 273 272 272 272 271 271 270 270 270 270 269 269 268 268 268 267 267 267 267 267 267 267 266 266 265 265 265 264 264 264 263 263 263 263 263 262 262 262 262 261 261 261 261 261 261 261 261 261 261 261 261 262 262 262 262 262 262 262 263 263 263 264 264 264 264 264 264 264 264 264 264 263 264 264 264 264 264 264 265 265 265 265 265
275 274 274 273 273 272 272 271 271 270 270 269 269 269 268 268 268 267 267 267 266 266 267 266 266 266 265 265 265 264 264 264 263 263 263 263 262 262 262 261 261 261 261 261 261 261 261 261 261 261 261 261 261 261 261 261 261 261 261 261 261 262 262 262 262 263 263 263 263 263 263 262 262 262 262 262 262 262 263 263 263 263 264 264 264 264
274 274 273 273 272 272 272 271 271 270 270 269 269 269 268 268 267 267 267 266 266 266 266 266 266 266 265 265 264 264 264 263 263 263 262 262 262 262 261 261 261 260 260 260 260 260 260 260 260 260 260 260 260 260 260 260 260 260 260 260 260 260 261 261 261 261 261 261 261 261 261 261 261 261 261 261 261 261 261 262 262 262 263 263 263 262
274 273 273 273 272 272 271 271 271 270 270 269 269 268 268 268 267 267 266 266 266 265 265 265 265 265 265 264 264 264 263 263 263 262 262 262 261 261 261 260 260 260 260 259 259 259 259 259 259 259 259 259 259 259 259 259 259 259 259 259 259 259 259 259 259 260 260 260 260 260 260 260 260 260 260 260 260 260 260 261 261 261 261 262 262 261
273 273 272 272 272 271 271 270 270 270 269 269 269 268 268 267 267 266 266 265 265 265 265 265 265 264 264 264 264 264 263 263 263 262 262 261 261 261 260 260 260 259 259 259 259 259 258 258 258 258 258 258 258 258 258 258 258 258 258 258 258 258 258 258 258 258 258 259 259 259 259 259 259 259 259 259 259 259 260 260 260 260 260 261 261 261
272 272 272 271 271 271 270 270 270 269 269 269 268 268 267 267 266 266 265 265 265 264 264 264 264 264 264 264 263 263 263 263 262 262 261 261 261 261 260 260 259 259 259 258 258 258 258 258 257 257 257 257 257 257 257 257 257 257 257 257 257 257 257 257 257 257 257 257 257 257 257 257 258 258 258 258 258 259 259 259 259 260 260 260 260 260
272 271 271 271 270 270 270 269 269 269 268 268 268 267 267 266 266 265 265 265 264 264 263 263 263 263 263 263 263 263 263 262 262 262 261 261 261 260 260 260 259 259 259 258 258 258 257 257 257 257 257 256 256 256 256 256 256 256 256 256 256 256 256 256 256 256 256 256 256 256 256 256 257 257 257 257 258 258 258 258 259 259 259 259 259 259
270 270 270 270 269 269 269 268 268 268 268 267 267 266 266 266 265 265 265 264 264 263 263 262 262 262 262 262 262 262 262 262 262 261 261 261 260 260 260 259 259 259 258 258 258 258 257 257 257 257 256 256 256 256 256 255 255 255 255 255 256 256 256 256 256 256 256 256 256 256 256 255 256 256 256 256 257 257 257 258 258 258 258 258 258 258
270 269 269 269 268 268 268 267 267 267 267 266 266 266 266 265 265 264 264 264 263 263 262 262 262 261 261 261 261 261 261 261 261 261 261 260 260 260 259 259 259 258 258 258 258 257 257 257 257 256 256 256 256 255 255 255 255 255 255 255 255 255 255 255 255 255 255 255 255 255 255 255 255 255 255 255 256 256 256 257 257 257 258 258 258 258
269 268 268 268 267 267 267 266 266 266 266 265 265 265 265 264 264 264 263 263 263 262 262 261 261 261 261 261 261 260 260 260 260 260 260 259 259 259 259 259 258 258 258 258 257 257 257 257 257 256 256 256 256 255 255 255 255 255 254 254 254 254 254 254 254 254 254 254 254 254 254 254 254 254 254 254 255 255 255 256 256 257 257 257 257 257
269 268 268 267 267 266 266 265 265 265 265 264 264 264 264 263 263 263 263 263 262 262 261 261 261 260 260 260 260 260 260 259 259 259 259 259 258 258 258 258 258 258 258 257 257 257 257 257 256 256 256 256 255 255 255 255 255 254 254 254 254 254 254 254 254 254 254 254 254 254 253 253 253 253 253 254 254 254 254 255 255 256 256 256 257 257
269 268 267 267 266 265 265 264 264 264 263 263 263 263 262 262 262 262 262 262 262 261 261 260 260 260 259 259 259 259 258 258 258 258 258 258 258 257 257 257 257 257 257 257 257 257 256 256 256 256 256 256 255 255 255 255 254 254 254 254 254 253 253 253 253 253 253 253 253 253 253 253 253 253 253 253 253 253 253 254 254 255 255 256 256 256
269 268 267 267 266 265 264 264 263 263 262 262 262 261 261 261 261 261 261 261 260 260 260 260 259 259 258 258 258 258 258 258 257 257 257 257 257 257 257 257 256 256 256 256 256 256 256 256 256 255 255 255 255 255 255 254 254 254 254 254 253 253 253 253 253 253 252 252 252 252 252 252 252 252 252 252 252 252 253 253 253 254 254 255 255 255
269 268 267 266 266 265 264 263 263 262 261 261 260 260 260 260 259 259 259 259 259 259 259 259 258 258 258 258 257 257 257 257 257 257 257 256 256 256 256 256 256 256 256 256 256 256 255 255 255 255 255 255 255 254 254 254 254 254 254 253 253 253 253 253 252 252 252 252 252 252 252 252 252 252 252 252 252 252 252 252 252 253 253 254 254 255
269 268 267 266 265 264 263 263 262 261 260 260 259 259 259 258 258 258 258 258 258 258 258 258 257 257 257 257 257 256 256 256 256 256 256 256 255 255 255 255 255 255 255 255 255 255 255 254 254 254 254 254 254 254 253 253 253 253 253 253 253 253 252 252 252 252 252 251 251 251 251 251 251 251 251 251 251 251 251 251 252 252 252 253 253 254
269 268 267 265 264 263 263 262 261 260 260 259 258 258 257 257 257 256 256 256 256 256 256 256 256 256 256 256 255 255 255 255 255 255 255 255 255 254 254 254 254 254 254 254 254 254 253 253 253 253 253 253 253 253 253 253 252 252 252 252 252 252 252 252 252 252 251 251 251 251 251 251 251 251 251 251 250 250 251 251 251 251 251 252 252 253
268 267 266 265 264 263 262 261 260 259 259 258 257 257 256 256 255 255 255 255 254 254 254 254 254 254 254 254 254 254 254 254 254 254 254 254 254 254 253 253 253 253 253 253 252 252 252 252 252 252 252 252 252 252 252 252 252 252 252 252 252 252 252 251 251 251 251 251 251 251 250 250 250 250 250 250 250 250 250 250 250 250 250 251 251 252
267 266 265 264 263 261 260 260 259 258 257 257 256 256 255 254 254 254 253 253 253 253 253 252 252 253 253 253 253 253 253 253 253 253 253 253 253 253 252 252 252 252 252 252 251 251 251 252 252 251 251 251 251 251 251 251 251 251 251 251 251 251 251 251 251 251 251 251 250 250 250 250 250 250 250 250 249 249 249 249 249 249 250 250 250 251
267 265 264 262 261 260 259 258 257 257 256 255 255 254 254 253 253 252 252 252 252 251 251 251 251 251 251 251 251 251 251 251 251 251 251 251 251 251 251 251 251 251 251 251 251 250 250 251 251 251 250 250 250 250 250 250 250 250 250 250 250 250 250 250 250 250 250 250 250 250 250 249 249 249 249 249 249 249 249 249 249 249 249 249 249 250
266 264 263 261 260 259 258 257 256 256 255 254 254 253 253 253 252 251 251 251 250 250 250 250 250 250 249 249 249 249 249 249 249 249 250 250 250 250 250 250 250 249 250 250 250 250 249 249 249 249 249 249 249 249 249 249 249 249 249 249 249 249 249 249 249 250 249 249 249 249 249 249 249 249 249 248 248 248 248 248 248 248 248 248 249 249
265 264 262 261 260 259 258 257 256 255 254 254 253 253 252 252 252 251 250 250 250 249 248 249 248 248 248 247 247 247 247 247 247 248 248 248 248 248 249 248 248 248 248 248 248 248 248 248 248 248 248 248 248 248 248 248 248 248 248 248 248 248 248 249 249 249 249 249 249 248 248 248 248 248 248 248 248 247 247 247 247 247 247 247 248 248
265 264 262 261 260 259 258 257 256 255 255 254 253 253 252 252 252 251 250 250 249 249 248 248 247 247 247 246 246 246 245 245 246 246 246 246 246 247 247 247 246 247 247 247 247 246 246 246 246 246 246 247 247 247 247 247 247 247 247 247 247 247 247 247 248 248 248 248 248 248 247 247 247 247 247 247 247 247 247 246 246 246 247 247 247 247
265 264 263 262 261 260 259 258 257 256 255 254 254 253 253 252 252 251 251 250 249 249 248 247 247 246 246 245 245 244 244 244 244 244 244 244 245 245 245 245 245 245 245 245 245 245 245 245 245 245 245 245 246 246 246 246 246 246 246 246 246 246 246 246 247 247 247 247 247 247 247 246 246 246 246 246 246 246 246 246 246 246 246 246 246 246
266 265 264 263 262 261 260 259 258 257 256 255 255 254 253 253 252 252 251 251 250 249 248 247 247 246 246 245 245 244 244 243 244 244 244 243 244 244 244 243 243 243 244 243 243 243 243 243 243 243 244 244 244 244 245 245 245 245 245 244 245 245 245 245 245 245 246 246 246 246 246 245 245 245 245 245 245 245 245 245 245 245 245 245 245 245
267 266 265 264 263 262 261 260 259 258 257 256 256 255 254 253 253 253 252 252 251 250 249 249 248 247 247 246 245 244 244 243 243 243 243 243 243 243 243 242 242 242 242 242 242 242 242 242 242 242 242 242 243 243 243 243 243 243 243 243 243 243 244 244 244 244 244 244 244 244 244 244 244 244 244 244 244 244 244 244 244 244 244 244 244 244
268 267 266 265 265 264 263 262 261 260 259 257 256 255 254 254 253 253 252 252 252 251 250 250 249 248 247 247 246 245 244 243 243 243 243 243 243 242 242 242 242 241 241 241 241 241 240 240 240 240 239 240 241 241 242 242 242 242 242 242 242 242 242 242 243 243 243 243 243 243 243 243 243 243 243 243 243 243 243 243 243 243 243 243 243 243
270 269 268 268 267 266 265 264 263 261 260 258 257 256 254 253 253 252 252 252 251 251 251 250 249 249 248 248 247 246 245 244 243 243 243 243 242 242 242 242 241 241 241 240 240 240 239 239 239 238 238 238 238 239 240 240 240 241 241 241 241 241 241 241 241 241 242 242 242 242 242 242 242 242 242 242 242 242 242 242 242 242 242 242 242 241
271 271 270 270 269 268 266 265 263 262 260 258 257 255 254 253 252 251 251 250 250 250 250 250 249 249 248 248 247 247 246 244 243 243 242 242 242 242 242 242 242 241 241 241 240 240 239 238 238 238 237 237 237 237 238 239 239 239 239 239 239 239 239 240 240 240 240 240 240 240 241 241 241 241 241 241 241 241 241 241 241 241 241 241 240 240
272 272 272 271 270 268 267 265 264 262 260 258 257 255 254 252 251 250 250 249 249 249 249 249 249 249 248 248 247 247 246 244 243 243 242 242 242 242 242 242 242 241 241 241 240 240 239 238 238 237 237 236 236 236 236 237 237 237 238 238 238 238 238 238 238 238 238 238 239 239 239 239 239 239 240 240 239 239 239 239 239 239 239 239 239 239
273 272 271 270 270 269 268 266 264 263 261 259 257 255 254 253 252 251 250 249 249 249 248 248 248 248 248 247 247 247 246 245 244 243 242 243 243 242 242 242 241 241 241 241 241 240 240 239 238 237 237 236 235 235 235 235 235 236 236 236 236 236 236 236 236 236 236 237 237 237 237 237 238 238 238 238 238 238 237 238 238 238 238 238 238 238
272 271 270 269 269 269 268 267 266 264 262 260 259 257 256 256 255 254 252 251 250 249 248 248 248 247 247 247 247 246 246 245 244 243 243 242 243 242 242 242 241 241 241 241 240 240 240 239 239 238 237 236 235 235 234 234 234 235 235 235 235 235 235 235 235 235 235 235 235 235 235 236 236 236 236 236 236 236 236 236 237 237 237 237 237 237
271 269 268 268 268 268 268 267 266 265 264 263 262 261 260 259 258 256 254 253 251 250 249 249 248 248 247 247 247 246 245 245 244 243 242 242 242 242 242 241 241 241 241 240 240 240 240 239 239 238 238 237 236 235 234 234 233 234 234 234 234 234 234 234 233 233 233 233 233 233 233 234 234 234 234 234 234 235 235 235 235 236 236 236 235 235
270 268 267 267 268 268 267 267 267 266 266 265 264 264 263 262 261 259 257 255 254 252 251 250 250 249 248 248 247 246 245 244 244 243 242 242 242 242 241 241 241 240 240 240 240 240 239 239 239 239 238 237 236 235 234 233 233 233 233 233 233 233 233 233 232 232 232 232 232 232 232 232 232 232 232 233 233 233 233 233 234 234 234 234 234 233
269 267 267 267 267 268 268 268 268 268 267 267 267 266 265 264 263 261 260 258 256 255 253 252 251 251 250 248 247 246 245 244 243 243 242 241 241 241 241 241 240 240 240 240 240 239 239 239 239 239 238 238 236 235 234 234 233 233 232 233 233 233 233 232 232 231 231 231 230 230 230 230 230 231 231 231 231 231 232 232 232 232 232 232 232 231
268 266 266 267 267 268 269 269 269 270 269 269 268 267 267 266 265 263 262 260 258 257 255 254 253 252 251 249 248 246 245 244 243 243 242 241 241 241 240 240 240 240 239 239 239 239 239 239 238 238 238 238 237 236 235 234 233 232 232 232 232 232 232 232 231 231 230 230 230 229 229 229 229 229 229 229 230 230 230 230 230 230 230 230 230 229
266 266 266 266 267 268 269 270 271 271 271 270 269 268 268 267 266 265 264 262 261 259 258 256 255 253 252 251 249 247 246 245 244 243 242 242 241 240 240 240 239 239 239 239 239 239 239 238 238 238 238 237 237 236 236 235 234 233 232 232 232 232 232 232 231 231 230 229 229 229 228 228 228 228 228 228 228 228 228 228 228 228 228 228 228 228
265 264 264 265 267 268 270 271 272 272 272 271 271 270 270 269 268 267 266 264 263 262 260 259 258 256 255 253 251 250 248 246 245 244 243 242 241 240 240 239 239 239 238 238 238 238 238 238 238 237 237 237 237 236 236 235 234 233 232 231 231 231 231 231 231 230 230 229 229 228 228 227 227 227 227 227 227 227 227 227 227 227 227 227 226 226
264 264 264 265 267 269 271 272 273 274 274 274 274 273 272 271 270 269 268 267 266 264 263 262 260 259 258 256 254 252 250 248 246 244 243 242 241 240 240 239 239 238 238 237 237 237 237 237 237 237 237 236 236 236 236 235 234 233 232 231 231 230 230 230 230 230 230 229 228 228 227 226 226 226 226 226 226 226 226 226 226 226 226 226 225 225
265 264 264 266 268 270 272 273 275 276 276 276 276 275 274 274 273 272 271 270 268 267 266 264 263 261 260 258 256 254 251 249 246 245 243 242 241 241 240 239 239 238 237 237 237 236 236 236 236 236 236 236 236 235 235 235 234 233 233 232 231 230 229 229 229 229 229 229 228 227 227 226 225 225 225 225 225 225 225 225 225 225 225 224 224 224
266 266 266 267 269 270 272 274 276 276 277 277 277 276 276 276 275 275 274 273 271 270 268 267 265 263 261 259 257 254 252 250 248 246 244 243 242 241 240 239 239 238 237 236 236 236 235 235 235 235 235 235 235 235 234 234 234 233 232 232 230 229 229 229 229 228 228 228 228 227 226 225 224 224 224 224 224 224 224 224 224 224 224 223 223 223
269 268 268 268 270 271 273 275 276 277 277 277 277 277 278 278 278 277 277 276 275 273 271 269 267 264 262 260 257 255 253 251 248 246 245 243 242 240 239 239 238 238 237 236 236 235 235 234 234 234 234 234 234 234 234 233 233 232 232 231 230 229 228 228 228 228 227 227 227 226 225 225 224 224 223 223 223 223 224 224 223 223 223 223 222 222
272 270 269 269 270 272 273 275 276 276 277 277 278 279 280 281 281 281 280 279 277 275 273 271 268 265 263 260 258 255 253 250 248 246 244 243 241 239 238 238 238 237 237 236 235 234 234 233 233 234 234 233 233 233 232 232 232 231 231 230 229 228 227 227 227 227 226 226 226 225 225 224 223 223 222 222 222 222 223 223 223 223 222 222 222 221
276 273 271 270 270 271 273 274 275 276 277 279 280 282 283 284 284 284 283 282 280 278 275 272 269 265 262 259 256 253 251 249 246 244 243 241 240 238 237 236 236 236 236 235 235 234 233 232 232 232 232 232 232 231 231 231 230 230 229 228 227 227 226 226 225 225 225 225 225 224 224 223 222 222 221 221 221 221 221 222 222 222 222 222 221 221